Location: Unspecified
(0.0000°N, 0.0000°E)
Time: 16:11:09
(UTC+02:00)

Cosmos 2263 Rocket - Visible Passes

Search period start: 30 August 2014 00:00
Search period end: 09 September 2014 00:00
Orbit: 825 x 848 km, 71.0° (Epoch: 30 August)

Date Brightness Start Highest point End Pass type
(mag) Time Alt. Az. Time Alt. Az. Time Alt. Az.
30 Aug 2.2 07:35:47 10° NNW 07:41:19 83° WSW 07:46:54 10° SSE visible
30 Aug 5.1 20:20:36 10° SW 20:24:57 23° WNW 20:29:17 10° NNW visible
31 Aug 2.2 07:19:10 10° NNW 07:24:43 88° ENE 07:30:18 10° SSE visible
01 Sep 2.3 07:02:35 10° NNW 07:08:07 79° ENE 07:13:41 10° SSE visible
02 Sep 2.4 06:46:00 10° N 06:51:31 71° ENE 06:57:04 10° SSE visible
03 Sep 2.6 06:29:27 10° N 06:34:55 63° ENE 06:40:25 10° SSE visible
04 Sep 2.8 06:12:54 10° N 06:18:19 56° ENE 06:23:45 10° SSE visible
05 Sep 2.9 05:56:22 10° N 06:01:42 50° ENE 06:07:05 10° SSE visible
06 Sep 3.1 05:43:22 34° NNE 05:45:06 44° ENE 05:50:23 10° SE visible
06 Sep 3.8 07:26:55 10° W 07:28:46 12° WSW 07:30:38 10° SW visible
07 Sep 3.9 05:30:56 26° ESE 05:30:56 26° ESE 05:33:40 10° SE visible
07 Sep 3.8 07:12:49 13° WSW 07:12:49 13° WSW 07:14:44 10° SW visible
